Preview of NWS' New Version of Forecast
This preview is not operational and should not be used for support decisions.

Regional Weather Roundup (RWR)

Issued by National Weather Service (NWS)

                            
000
ASCA42 TJSJ 200410
RWRPR 
PUERTO RICO/U.S. VIRGIN ISLANDS HOURLY WEATHER ROUNDUP
NATIONAL WEATHER SERVICE SAN JUAN PR
1200 AM AST THU JUN 20 2019

PRZ001>002-007>008-010-200500-
PUERTO RICO
  
CITY           SKY/WX    TMP DP  RH WIND       PRES   REMARKS
SAN JUAN LMM   PTCLDY    81  75  83 E12       30.09S                  
AGUADILLA      CLEAR     79  75  89 E8        30.11S                  
CEIBA          CLOUDY    84  73  70 E9        30.12R HX  91           
$$

VIZ001>002-200500-
U.S. VIRGIN ISLANDS
  
CITY           SKY/WX    TMP DP  RH WIND       PRES   REMARKS
CHARLOTTE AMA  CLEAR     82  73  74 E12       30.09F                  
CHRISTIANSTED  CLOUDY    81  73  78 E14       30.09S                  
$$

HOURLY WEATHER ROUNDUP FOR THE NEWS MEDIA
  
CITY           SKY/WX    TMP DP  RH WIND       PRES   REMARKS
ORLANDO        FAIR      75  72  90 S10       30.01F                  
NEW YORK       FOG       66  66 100 E7        29.75F VSB 1/2          
NEWARK         DRZL/FOG  67  67 100 NE6       29.74F VSB 3/4          
CHICAGO        CLOUDY    56  53  90 N14       29.67S                  
HARTFORD       CLOUDY    63  60  90 S7        29.80S                  
BOSTON         CLOUDY    68  62  81 S8        29.79F                  
DALLAS         CLOUDY    90  73  57 W14       29.65R THUNDER HX  98   
PHILADELPHIA   TSTM      73  71  93 VRB5      29.71  FOG              
LOS ANGELES    MOCLDY    64  57  78 W9        29.96S                  
WASHINGTON DC  MOCLDY    77  71  82 S8        29.69F